DW8633 Weather Reports


Display with metric or nautical units.
time (UTC)temp
F
wind
direction
speed
MPH
gust
MPH
rain 1hr
in
rain 24hr
in
rain mn
in
humidity
%
barometer
mb
20260505213531 43 360 15.0 23.0 0.00 0.00 0.00 40 934.2
20260505212534 44 360 14.0 25.0 0.00 0.00 0.00 40 934.2
20260505212033 43 360 14.0 22.0 0.00 0.00 0.00 40 934.2
20260505211633 44 360 17.0 24.0 0.00 0.00 0.00 40 934.3
20260505211033 43 360 17.0 24.0 0.00 0.00 0.00 39 934.3
20260505210532 44 360 12.0 24.0 0.00 0.00 0.00 40 934.3
20260505210032 43 360 14.0 23.0 0.00 0.00 0.00 39 934.3
20260505205532 44 360 17.0 27.0 0.00 0.00 0.00 39 934.4
20260505205031 44 360 17.0 27.0 0.00 0.00 0.00 39 934.4
20260505204530 44 360 17.0 23.0 0.00 0.00 0.00 39 934.4
20260505204032 43 360 18.0 24.0 0.00 0.00 0.00 40 934.5
20260505203531 43 360 16.0 24.0 0.00 0.00 0.00 39 934.4
20260505202529 43 360 18.0 25.0 0.00 0.00 0.00 39 934.6
20260505202030 44 360 17.0 23.0 0.00 0.00 0.00 39 934.5
20260505201533 43 360 12.0 24.0 0.00 0.00 0.00 40 934.5
20260505201029 43 360 16.0 24.0 0.00 0.00 0.00 40 934.5
20260505200529 43 360 14.0 24.0 0.00 0.00 0.00 40 934.5
20260505200027 42 360 15.0 23.0 0.00 0.00 0.00 41 934.6
20260505195528 43 360 12.0 25.0 0.00 0.00 0.00 40 934.6
20260505195027 43 360 18.0 25.0 0.00 0.00 0.00 41 934.5
20260505194527 43 360 16.0 24.0 0.00 0.00 0.00 40 934.6
20260505194029 43 360 13.0 24.0 0.00 0.00 0.00 40 934.5
20260505193525 43 360 14.0 21.0 0.00 0.00 0.00 40 934.6
20260505192524 42 360 16.0 25.0 0.00 0.00 0.00 40 934.6
20260505192026 42 360 19.0 25.0 0.00 0.00 0.00 40 934.6
20260505191524 42 360 15.0 22.0 0.00 0.00 0.00 42 934.6
20260505191023 42 360 15.0 26.0 0.00 0.00 0.00 40 934.7
20260505190523 42 360 19.0 26.0 0.00 0.00 0.00 41 934.6
20260505190025 42 360 12.0 21.0 0.00 0.00 0.00 42 934.4
20260505185523 42 360 14.0 25.0 0.00 0.00 0.00 40 934.5
20260505185022 41 360 18.0 25.0 0.00 0.00 0.00 40 934.4
20260505184526 42 360 16.0 22.0 0.00 0.00 0.00 40 934.4
20260505184026 41 360 12.0 24.0 0.00 0.00 0.00 41 934.4
20260505183522 41 360 15.0 24.0 0.00 0.00 0.00 41 934.6
20260505182523 41 360 15.0 35.0 0.00 0.00 0.00 41 934.4
20260505182023 41 360 22.0 35.0 0.00 0.00 0.00 40 934.4
20260505181523 42 360 11.0 24.0 0.00 0.00 0.00 41 934.3
20260505181023 41 360 15.0 26.0 0.00 0.00 0.00 40 934.5
20260505180522 42 360 14.0 27.0 0.00 0.00 0.00 40 934.5
20260505180022 42 360 18.0 27.0 0.00 0.00 0.00 38 934.5
20260505175522 41 360 12.0 27.0 0.00 0.00 0.00 40 934.4
20260505175022 42 360 14.0 31.0 0.00 0.00 0.00 41 934.4
20260505174528 41 360 22.0 31.0 0.00 0.00 0.00 40 934.4
20260505174022 42 360 15.0 26.0 0.00 0.00 0.00 40 934.3
20260505173521 42 360 14.0 24.0 0.00 0.00 0.00 40 934.3
20260505172522 41 360 19.0 24.0 0.00 0.00 0.00 40 934.4
20260505172020 41 360 16.0 24.0 0.00 0.00 0.00 40 934.6
20260505171519 41 360 15.0 26.0 0.00 0.00 0.00 42 934.4
20260505171019 40 360 11.0 26.0 0.00 0.00 0.00 43 934.5
20260505170519 40 360 19.0 25.0 0.00 0.00 0.00 43 934.5
20260505170020 40 360 16.0 25.0 0.00 0.00 0.00 43 934.6
20260505165518 40 360 17.0 26.0 0.00 0.00 0.00 44 934.5
20260505165018 40 360 14.0 26.0 0.00 0.00 0.00 42 934.5
20260505164517 40 360 15.0 26.0 0.00 0.00 0.00 44 934.5
20260505164016 40 360 15.0 26.0 0.00 0.00 0.00 44 934.5
20260505163514 39 360 17.0 24.0 0.00 0.00 0.00 44 934.5
20260505162514 38 360 19.0 25.0 0.00 0.00 0.00 46 934.6
20260505162013 39 360 17.0 25.0 0.00 0.00 0.00 47 934.6
20260505161513 39 360 18.0 25.0 0.00 0.00 0.00 47 934.5
20260505161012 38 360 15.0 25.0 0.00 0.00 0.00 49 934.6
20260505160511 37 360 14.0 22.0 0.00 0.00 0.00 50 934.5
20260505152509 37 360 14.0 23.0 0.00 0.00 0.00 52 934.4
20260505152009 37 360 11.0 21.0 0.00 0.00 0.00 54 934.5
20260505151509 37 360 14.0 22.0 0.00 0.00 0.00 53 934.5
20260505151009 37 360 15.0 23.0 0.00 0.00 0.00 52 934.5
20260505150507 37 360 14.0 20.0 0.00 0.00 0.00 52 934.5
20260505140559 37 360 14.0 20.0 0.00 0.00 0.00 59 934.0
20260505140110 36 360 12.0 20.0 0.00 0.00 0.00 59 934.0
20260505124554 35 360 10.0 16.0 0.00 0.00 0.00 67 933.5
20260505124051 34 360 11.0 16.0 0.00 0.00 0.00 68 933.5
20260505123551 34 360 10.0 14.0 0.00 0.00 0.00 68 933.4
20260505122551 34 360 8.0 14.0 0.00 0.00 0.00 68 933.3
20260505122051 34 360 9.0 13.0 0.00 0.00 0.00 68 933.3
20260505121611 34 360 10.0 13.0 0.00 0.00 0.00 67 933.3
20260505121050 34 360 8.0 12.0 0.00 0.00 0.00 67 933.2
20260505120550 34 360 8.0 12.0 0.00 0.00 0.00 67 933.2
20260505120051 34 360 9.0 13.0 0.00 0.00 0.00 67 933.1
20260505115553 34 360 8.0 13.0 0.00 0.00 0.00 67 933.1
20260505115052 34 360 9.0 13.0 0.00 0.00 0.00 67 933.1
20260505114549 34 360 9.0 13.0 0.00 0.00 0.00 66 933.1
20260505114049 34 360 10.0 15.0 0.00 0.00 0.00 66 933.1
20260505113550 34 360 11.0 15.0 0.00 0.00 0.00 66 933.1
20260505112547 34 360 10.0 14.0 0.00 0.00 0.00 66 933.0
20260505112047 34 360 10.0 14.0 0.00 0.00 0.00 66 933.0
20260505111548 35 360 10.0 15.0 0.00 0.00 0.00 66 933.0
20260505111047 34 360 11.0 15.0 0.00 0.00 0.00 66 933.0
20260505110547 34 360 9.0 13.0 0.00 0.00 0.00 66 933.0
20260505102042 35 360 7.0 10.0 0.00 0.00 0.00 64 932.9
20260505101552 35 360 8.0 10.0 0.00 0.00 0.00 64 932.8
20260505101041 35 360 8.0 11.0 0.00 0.00 0.00 64 932.9
20260505100541 35 360 8.0 11.0 0.00 0.00 0.00 64 932.9
20260505100041 35 360 7.0 11.0 0.00 0.00 0.00 64 932.9
20260505095541 35 360 7.0 10.0 0.00 0.00 0.00 64 932.8
20260505095040 35 360 7.0 9.0 0.00 0.00 0.00 63 932.8
20260505094540 35 360 6.0 11.0 0.00 0.00 0.00 63 932.8
20260505094038 35 360 7.0 11.0 0.00 0.00 0.00 62 932.8
20260505093539 35 360 7.0 11.0 0.00 0.00 0.00 62 932.7
20260505092538 36 360 8.0 13.0 0.00 0.00 0.00 61 932.7
20260505092038 36 360 10.0 13.0 0.00 0.00 0.00 61 932.7
20260505091540 36 360 9.0 13.0 0.00 0.00 0.00 61 932.7
20260505091037 36 360 9.0 13.0 0.00 0.00 0.00 61 932.7
20260505090537 36 360 10.0 13.0 0.00 0.00 0.00 61 932.7
20260505090051 35 360 10.0 13.0 0.00 0.00 0.00 61 932.6
20260505085537 35 360 9.0 14.0 0.00 0.00 0.00 61 932.7
20260505085037 35 360 9.0 14.0 0.00 0.00 0.00 61 932.7
20260505084542 36 360 9.0 13.0 0.00 0.00 0.00 60 932.6
20260505084036 36 360 10.0 14.0 0.00 0.00 0.00 60 932.7
20260505083536 36 360 10.0 14.0 0.00 0.00 0.00 60 932.7
20260505082535 35 360 9.0 12.0 0.00 0.00 0.00 59 932.7
20260505082036 35 360 8.0 13.0 0.00 0.00 0.00 59 932.7
20260505081542 36 360 8.0 14.0 0.00 0.00 0.00 59 932.7
20260505081036 36 360 10.0 13.0 0.00 0.00 0.00 58 932.6
20260505080534 36 360 10.0 14.0 0.00 0.00 0.00 58 932.7
20260505080033 36 360 10.0 14.0 0.00 0.00 0.00 58 932.6
20260505075535 36 360 11.0 15.0 0.00 0.00 0.00 58 932.6
20260505075035 36 360 11.0 15.0 0.00 0.00 0.00 57 932.7
20260505074534 36 360 11.0 15.0 0.00 0.00 0.00 57 932.6
20260505074034 36 360 10.0 14.0 0.00 0.00 0.00 57 932.7
20260505073534 36 360 11.0 15.0 0.00 0.00 0.00 57 932.8
20260505072532 36 360 9.0 13.0 0.00 0.00 0.00 58 932.7
20260505072031 36 360 9.0 12.0 0.00 0.00 0.00 58 932.7
20260505071530 36 360 9.0 12.0 0.00 0.00 0.00 58 932.7
20260505071030 36 360 8.0 12.0 0.00 0.00 0.00 58 932.7
20260505070533 36 360 8.0 12.0 0.00 0.00 0.00 58 932.7
20260505070030 36 360 9.0 12.0 0.00 0.00 0.00 57 932.7
20260505065531 36 360 9.0 12.0 0.00 0.00 0.00 57 932.7
20260505065031 36 360 9.0 15.0 0.00 0.00 0.00 57 932.7
20260505064528 36 360 11.0 15.0 0.00 0.00 0.00 56 932.8
20260505064027 36 360 9.0 14.0 0.00 0.00 0.00 56 932.7
20260505063528 36 360 10.0 14.0 0.00 0.00 0.00 56 932.8
20260505062528 36 360 9.0 13.0 0.00 0.00 0.00 56 932.7
20260505062025 36 360 9.0 14.0 0.00 0.00 0.00 57 932.7
20260505061525 36 360 10.0 14.0 0.00 0.00 0.00 57 932.7
20260505061027 36 360 9.0 13.0 0.00 0.00 0.00 58 932.7
20260505060523 35 360 8.0 10.0 0.00 0.00 0.00 59 932.7
20260505060031 35 360 7.0 10.0 0.00 0.00 0.00 60 932.6
20260505055523 35 360 7.0 10.0 0.00 0.00 0.00 60 932.7
20260505055024 35 360 8.0 11.0 0.00 0.00 0.00 60 932.6
20260505054534 35 360 7.0 11.0 0.00 0.00 0.00 61 932.6
20260505054026 34 360 7.0 9.0 0.00 0.00 0.00 62 932.6
20260505053523 34 360 6.0 7.0 0.00 0.00 0.00 63 932.7
20260505052523 33 360 4.0 6.0 0.00 0.00 0.00 62 932.5
20260505052023 33 360 5.0 6.0 0.00 0.00 0.00 62 932.5
20260505051522 33 360 4.0 6.0 0.00 0.00 0.00 62 932.5
20260505051022 33 360 5.0 7.0 0.00 0.00 0.00 61 932.5
20260505050524 33 360 5.0 7.0 0.00 0.00 0.00 61 932.5
20260505041514 35 360 4.0 7.0 0.00 0.00 0.00 57 932.3
20260505041014 35 360 5.0 7.0 0.00 0.00 0.00 56 932.4
20260505040512 36 360 5.0 8.0 0.00 0.00 0.00 55 932.2
20260505040011 37 360 6.0 11.0 0.00 0.00 0.00 55 932.2
20260505035513 37 360 6.0 13.0 0.00 0.00 0.00 54 932.2
20260505035008 37 360 7.0 13.0 0.00 0.00 0.00 54 932.1
20260505034508 38 360 8.0 12.0 0.00 0.00 0.00 54 932.1
20260505034008 38 360 9.0 15.0 0.00 0.00 0.00 53 932.0
20260505033506 38 360 10.0 15.0 0.00 0.00 0.00 52 931.9
20260505032507 39 360 10.0 18.0 0.00 0.00 0.00 52 931.9
20260505032007 39 360 12.0 20.0 0.00 0.00 0.00 51 931.8
20260505031504 39 360 12.0 21.0 0.00 0.00 0.00 51 931.8
20260505031007 39 360 15.0 21.0 0.00 0.00 0.00 51 931.7
20260505030502 40 360 11.0 19.0 0.00 0.00 0.00 51 931.7
20260505030002 40 360 11.0 19.0 0.00 0.00 0.00 51 931.7
20260505025601 40 360 13.0 18.0 0.00 0.00 0.00 51 931.6
20260505025059 40 360 11.0 20.0 0.00 0.00 0.00 51 931.6
20260505024604 40 360 13.0 20.0 0.00 0.00 0.00 51 931.5
20260505024057 40 360 13.0 18.0 0.00 0.00 0.00 50 931.4
20260505023556 40 360 12.0 18.0 0.00 0.00 0.00 51 931.3
20260505022556 41 360 14.0 21.0 0.00 0.00 0.00 50 931.1
20260505022059 41 360 17.0 21.0 0.00 0.00 0.00 50 931.0
20260505021556 41 360 17.0 22.0 0.00 0.00 0.00 49 931.0
20260505021053 41 360 13.0 23.0 0.00 0.00 0.00 50 931.0
20260505020552 42 360 15.0 23.0 0.00 0.00 0.00 49 930.9
20260505020054 42 360 14.0 19.0 0.00 0.00 0.00 49 930.8
20260505015552 42 360 14.0 19.0 0.00 0.00 0.00 49 930.6
20260505015051 42 360 12.0 19.0 0.00 0.00 0.00 49 930.8
20260505014551 42 360 11.0 21.0 0.00 0.00 0.00 49 930.6
20260505014050 42 360 14.0 25.0 0.00 0.00 0.00 48 930.5
20260505013549 42 360 18.0 25.0 0.00 0.00 0.00 48 930.5
20260505012548 43 360 15.0 22.0 0.00 0.00 0.00 48 930.4
20260505012048 43 360 18.0 24.0 0.00 0.00 0.00 47 930.4
20260505011552 43 360 14.0 24.0 0.00 0.00 0.00 47 930.3
20260505011047 43 360 18.0 24.0 0.00 0.00 0.00 47 930.3
20260505010547 43 360 17.0 26.0 0.00 0.00 0.00 47 930.3
20260505010046 43 360 17.0 26.0 0.00 0.00 0.00 47 930.3
20260505005546 43 360 18.0 25.0 0.00 0.00 0.00 46 930.3
20260505005047 43 360 17.0 25.0 0.00 0.00 0.00 46 930.2
20260505004549 44 360 19.0 25.0 0.00 0.00 0.00 45 930.2
20260505004048 44 360 18.0 25.0 0.00 0.00 0.00 45 930.1
20260505003546 44 360 17.0 25.0 0.00 0.00 0.00 45 930.1
20260505003145 44 360 20.0 28.0 0.00 0.00 0.00 44 930.0
20260505002545 44 360 21.0 28.0 0.00 0.00 0.00 44 930.0
20260505002044 45 360 19.0 28.0 0.00 0.00 0.00 44 929.9
20260505001545 45 360 19.0 28.0 0.00 0.00 0.00 43 929.9
20260505001043 45 360 20.0 28.0 0.00 0.00 0.00 43 929.9
20260505000546 45 360 21.0 29.0 0.00 0.00 0.00 43 929.8
20260505000046 46 360 19.0 29.0 0.00 0.00 0.00 42 929.8
20260504235544 46 360 19.0 29.0 0.00 0.00 0.00 42 929.8
20260504235044 46 360 22.0 29.0 0.00 0.00 0.00 41 929.7
20260504234609 48 360 23.0 30.0 0.00 0.00 0.00 40 929.7
20260504234042 47 360 21.0 35.0 0.00 0.00 0.00 41 929.6
20260504233545 47 360 23.0 35.0 0.00 0.00 0.00 42 929.6
20260504232542 46 360 20.0 32.0 0.00 0.00 0.00 42 929.7
20260504232041 48 360 24.0 32.0 0.00 0.00 0.00 41 929.6
20260504231551 47 360 21.0 32.0 0.00 0.00 0.00 42 929.6
20260504231041 47 360 23.0 32.0 0.00 0.00 0.00 43 929.5
20260504230542 46 360 24.0 31.0 0.00 0.00 0.00 44 929.5
20260504230041 47 360 24.0 31.0 0.00 0.00 0.00 42 929.5
20260504225542 47 360 21.0 33.0 0.00 0.00 0.00 44 929.5
20260504225047 48 360 23.0 33.0 0.00 0.00 0.00 43 929.4
20260504224541 48 360 24.0 32.0 0.00 0.00 0.00 43 929.4
20260504224040 48 360 23.0 33.0 0.00 0.00 0.00 43 929.4
20260504223540 47 360 24.0 32.0 0.00 0.00 0.00 43 929.4
20260504222540 47 360 24.0 32.0 0.00 0.00 0.00 45 929.5
20260504222041 47 360 22.0 33.0 0.00 0.00 0.00 46 929.4
20260504221544 47 360 23.0 33.0 0.00 0.00 0.00 46 929.4
20260504221041 47 360 24.0 33.0 0.00 0.00 0.00 46 929.5
20260504220540 48 360 22.0 33.0 0.00 0.00 0.00 46 929.6
20260504220040 48 360 21.0 33.0 0.00 0.00 0.00 47 929.6
20260504215540 48 360 18.0 29.0 0.00 0.00 0.00 48 929.5
20260504215039 48 360 23.0 33.0 0.00 0.00 0.00 47 929.5
20260504214542 48 360 22.0 33.0 0.00 0.00 0.00 47 929.5
20260504214040 49 360 22.0 30.0 0.00 0.00 0.00 46 929.5